Powrót do katalogu

SES 21

AktywnyŁącznośćGEO
NORAD 53961·PAYLOAD·🇱🇺 Luxembourg

Wystrzelony Oct 4, 2022 z Cape Canaveral Space Force Station

Loading…

TLE

ŚwieżeSource: CelesTrak SupGP

Epoka: Sep 13, 2026, 23:30 UTC

1 53961C 22123B   26256.97916667  .00000170  00000+0  00000+0 0  2568
2 53961   0.0380  41.9881 0001141 115.6890  56.7810  1.00272242    13

Śledź SES 21 w czasie rzeczywistym z AllMySat

Download on the App Store